[[{"header":{"parameterUnit":"m.s-1","parameterCategory":1,"la1":30.2991,"la2":30.254,"lo1":-89.0895,"lo2":-89.0444,"dy":0.0017,"dx":0.0017,"nx":28,"ny":28,"refTime":"2024-02-08T03:00:00:Z","depth":0,"parameterNumber":2,"parameterNumberName":"U-component_of_WINDS"},"data":[0,0,0,0,0,0,0,0,0,0,0,0,0,0,0,0,0,0,0,0,0,0,0,0,0,0,0,0,0,0,0,0,0,0,0,0,0,0,0,0,0,0,0,0,0,0,0,0,0,0,0,0,0,0,0,0,0,0,-4.01,-4.0102,0,-4.0276,-4.0278,-4.028,-4.0314,-4.0313,-4.0312,-4.031,-4.0489,-4.0495,-4.0501,0,0,0,0,0,0,0,0,0,0,0,0,0,-3.9793,-3.9799,-4.01,-4.0102,-4.0104,-4.0276,-4.0278,-4.0281,-4.0315,-4.0313,-4.0311,-4.031,-4.0487,-4.0494,-4.0502,0,0,0,0,0,0,0,0,0,0,0,0,0,-3.9943,-3.98,-4.0099,-4.0142,-4.0148,-4.0275,-4.0278,-4.0281,-4.0315,-4.0313,-4.0311,-4.0309,-4.0485,-4.0494,-4.0503,-4.06,0,0,-4.053,-4.0534,0,0,0,0,0,0,0,0,-3.9935,-3.9955,-4.0134,-4.0139,-4.0146,-4.0271,-4.0236,-4.0388,-4.0316,-4.0251,-4.031,-4.0308,-4.0418,-4.0433,-4.047,-4.0608,-4.0616,-4.0531,-4.0537,-4.054,-4.0543,0,0,0,0,0,0,0,-3.9924,-3.9947,-4.017,-4.0136,-4.0144,-4.0152,-4.0171,-4.0265,-4.0344,-4.0257,-4.026,-4.028,-4.0421,-4.0461,-4.0475,-4.0619,-4.0531,-4.0539,-4.0544,-4.0548,-4.0848,-4.085,0,0,0,0,0,0,-3.9907,-3.9938,-4.0164,-4.0175,-4.0033,-4.016,-4.0181,-4.0233,-4.0343,-4.0358,-4.0282,-4.0281,-4.0447,-4.0464,-4.0481,-4.0603,-4.054,-4.0549,-4.0554,-4.0845,-4.0848,-4.0851,0,0,0,0,0,0,-3.99,-3.9926,-4.0157,-4.0058,-4.0088,-4.0167,-4.0225,-4.0238,-4.0278,-4.0362,-4.0376,-4.0308,-4.0446,-4.0468,-4.0571,-4.061,-4.0553,-4.0561,-4.0842,-4.0846,-4.085,-4.0847,0,0,0,0,0,0,-3.9891,-3.9924,-3.9961,-4.0058,-4.0093,-4.0243,-4.0228,-4.0243,-4.0294,-4.0294,-4.0391,-4.0405,-4.0446,-4.0557,-4.058,-4.0621,-4.0568,-4.0839,-4.0844,-4.0849,-4.0844,-4.085,-4.0856,0,0,0,0,0,-3.988,-3.9953,-3.9963,-3.999,-4.0141,-4.0245,-4.0265,-4.0312,-4.0296,-4.0335,-4.039,-4.0402,-4.0602,-4.0567,-4.0593,-4.0638,-4.0837,-4.0843,-4.0848,-4.0841,-4.0849,-4.0856,0,0,0,0,0,0,-3.9857,-3.9966,-3.9978,-4.0085,-4.0156,-4.0251,-4.0301,-4.0318,-4.0394,-4.0392,-4.0446,-4.0467,-4.0567,-4.0613,-4.0572,-4.0739,-4.0719,-4.073,-4.0705,-4.0713,-4.0719,-4.0704,-4.0576,0,0,0,0,0,-3.9864,-3.994,-4.0031,-4.0117,-4.0152,-4.022,-4.0267,-4.0297,-4.0373,-4.0402,-4.0465,-4.0537,-4.0617,-4.0668,-4.0745,-4.0852,-4.0874,-4.0896,-4.0902,-4.0906,-4.0914,-4.0975,-4.0986,-4.087,-4.087,-4.087,0,0,-3.988,-3.9949,-3.9993,-4.0114,-4.0172,-4.0249,-4.0245,-4.0326,-4.0384,-4.0415,-4.0515,-4.0564,-4.0648,-4.0754,-4.0803,-4.0795,-4.0952,-4.0913,-4.0916,-4.0922,-4.0982,-4.0993,-4.1003,-4.0874,-4.0873,-4.0872,0,0,-3.9948,-4.0008,-4.0086,-4.0145,-4.0235,-4.028,-4.0299,-4.0393,-4.0426,-4.0529,-4.0554,-4.0624,-4.0759,-4.0819,-4.0867,-4.0961,-4.0975,-4.0986,-4.1015,-4.1074,-4.1083,-4.1091,-4.1125,-4.1136,-4.0994,-4.0994,-4.0994,0,-3.9956,-4.0073,-4.0124,-4.0205,-4.0257,-4.0291,-4.037,-4.0425,-4.0535,-4.0571,-4.0561,-4.0733,-4.0792,-4.0912,-4.0936,-4.0974,-4.0997,-4.0973,-4.1078,-4.1087,-4.1095,-4.1128,-4.114,-4.0995,-4.0995,-4.0994,-4.0994,0,-4.0079,-4.016,-4.0213,-4.0319,-4.0378,-4.0458,-4.0521,-4.0574,-4.06,-4.0647,-4.0752,-4.0825,-4.0919,-4.095,-4.0975,-4.1075,-4.1067,-4.1067,-4.1047,-4.1106,-4.1137,-4.115,-4.0995,-4.0995,-4.0995,-4.0995,0,0,-4.0134,-4.027,-4.0288,-4.0337,-4.044,-4.0504,-4.0586,-4.0679,-4.0724,-4.08,-4.087,-4.0986,-4.0987,-4.1042,-4.1075,-4.1127,-4.1197,-4.1121,-4.1123,-4.1132,-4.1311,-4.1309,-4.1323,-4.1208,-4.1211,-4.1213,-4.1304,0,-4.0213,-4.0361,-4.041,-4.0533,-4.0609,-4.0644,-4.0716,-4.0787,-4.0834,-4.0905,-4.0958,-4.1039,-4.1034,-4.1068,-4.1121,-4.1177,-4.1234,-4.1172,-4.1274,-4.1277,-4.1249,-4.1339,-4.1337,-4.1419,-4.1316,-4.1319,-4.132,0,-4.0325,-4.0403,-4.0534,-4.0629,-4.0663,-4.0726,-4.0817,-4.0885,-4.0967,-4.0998,-4.106,-4.109,-4.1178,-4.1155,-4.1278,-4.1234,-4.128,-4.1314,-4.1319,-4.1328,-4.13,-4.135,-4.1447,-4.1458,-4.134,-4.1339,-4.1337,0,-4.0351,-4.049,-4.0586,-4.0628,-4.0741,-4.0785,-4.0834,-4.0914,-4.0968,-4.1047,-4.1082,-4.117,-4.1218,-4.1286,-4.1339,-4.1318,-4.1457,-4.1438,-4.1484,-4.1483,-4.151,-4.1507,-4.1614,-4.1542,-4.1542,-4.1541,-4.1541,0,-4.0433,-4.0512,-4.06,-4.0659,-4.0748,-4.0805,-4.0892,-4.0944,-4.1015,-4.1085,-4.1121,-4.1186,-4.1253,-4.1327,-4.137,-4.1465,-4.1486,-4.1513,-4.1523,-4.1509,-4.1506,-4.1538,-4.1533,-4.1545,-4.1544,-4.1543,-4.1543,0,-4.0476,-4.0539,-4.0646,-4.0746,-4.0773,-4.0834,-4.0919,-4.0978,-4.1028,-4.1117,-4.1141,-4.1219,-4.1308,-4.1369,-4.1483,-4.1512,-4.1614,-4.1624,-4.1587,-4.1591,-4.1634,-4.1628,-4.1763,-4.1784,-4.1699,-4.17,-4.1701,0,-4.0524,-4.0585,-4.0692,-4.0742,-4.0792,-4.0872,-4.0927,-4.0987,-4.1043,-4.1142,-4.119,-4.1282,-4.1358,-4.1499,-4.1566,-4.1654,-4.1666,-4.1707,-4.1679,-4.1663,-4.1665,-4.166,-4.1667,-4.171,-4.1711,-4.1712,-4.1712,0,-4.0602,-4.063,-4.0709,-4.0799,-4.0864,-4.0938,-4.1012,-4.1051,-4.1123,-4.1185,-4.1277,-4.1337,-4.1455,-4.1546,-4.1641,-4.1692,-4.1714,-4.1721,-4.1736,-4.1721,-4.1697,-4.171,-4.1597,-4.1717,-4.1716,-4.1716,-4.1716,-4.1716,-4.0648,-4.0705,-4.079,-4.0876,-4.0939,-4.1008,-4.1069,-4.1127,-4.1205,-4.1306,-4.1337,-4.1433,-4.1516,-4.1646,-4.1699,-4.1775,-4.1771,-4.1793,-4.1799,-4.1803,-4.1802,-4.1686,-4.1793,-4.1793,-4.1793,-4.1793,-4.1793,0,-4.0727,-4.0784,-4.0864,-4.0967,-4.1036,-4.1053,-4.1136,-4.1192,-4.1277,-4.1352,-4.1428,-4.1535,-4.1624,-4.1699,-4.1792,-4.1838,-4.1851,-4.186,-4.1857,-4.1868,-4.1801,-4.1778,-4.1849,-4.1849,-4.1849,-4.1849,-4.1849,-4.1849,-4.0776,-4.0873,-4.0912,-4.1041,-4.1098,-4.1193,-4.1239,-4.1303,-4.1364,-4.1482,-4.1557,-4.1606,-4.1682,-4.1781,-4.1864,-4.1884,-4.1915,-4.1922,-4.1944,-4.1879,-4.1873,-4.1867,-4.1845,-4.1929,-4.1929,-4.2005,-4.2006,-4.2006]},{"header":{"parameterUnit":"m.s-1","parameterCategory":1,"la1":30.2991,"la2":30.254,"lo1":-89.0895,"lo2":-89.0444,"dy":0.0017,"dx":0.0017,"nx":28,"ny":28,"refTime":"2024-02-08T03:00:00:Z","depth":0,"parameterNumber":3,"parameterNumberName":"V-component_of_WINDS"},"data":[0,0,0,0,0,0,0,0,0,0,0,0,0,0,0,0,0,0,0,0,0,0,0,0,0,0,0,0,0,0,0,0,0,0,0,0,0,0,0,0,0,0,0,0,0,0,0,0,0,0,0,0,0,0,0,0,0,0,2.7829,2.783,0,2.799,2.7992,2.7994,2.8116,2.8117,2.8119,2.812,2.8282,2.8285,2.8288,0,0,0,0,0,0,0,0,0,0,0,0,0,2.7626,2.7629,2.7829,2.7831,2.7833,2.799,2.7992,2.7994,2.8116,2.8118,2.8119,2.812,2.8281,2.8285,2.8289,0,0,0,0,0,0,0,0,0,0,0,0,0,2.7743,2.763,2.7828,2.7913,2.7922,2.7989,2.7992,2.7995,2.8116,2.8118,2.8119,2.8121,2.828,2.8284,2.8289,2.8285,0,0,2.8304,2.8306,0,0,0,0,0,0,0,0,2.7736,2.775,2.7898,2.7907,2.7917,2.8035,2.798,2.8092,2.8115,2.8042,2.812,2.8122,2.8198,2.821,2.8236,2.8293,2.83,2.8305,2.8307,2.831,2.8311,0,0,0,0,0,0,0,2.7728,2.7744,2.7893,2.79,2.7912,2.7942,2.7961,2.8002,2.8108,2.8049,2.8058,2.8075,2.8204,2.8231,2.8241,2.8302,2.8304,2.8309,2.8312,2.8314,2.8368,2.8367,0,0,0,0,0,0,2.7707,2.7737,2.7887,2.7897,2.7829,2.7945,2.7965,2.7995,2.8108,2.8127,2.8074,2.8081,2.8222,2.8235,2.8247,2.8253,2.831,2.8314,2.8317,2.8369,2.8368,2.8366,0,0,0,0,0,0,2.7702,2.7719,2.7881,2.782,2.7843,2.7946,2.7979,2.7998,2.8026,2.8128,2.8147,2.8082,2.8224,2.824,2.8276,2.826,2.8316,2.8321,2.8371,2.8369,2.8367,2.8263,0,0,0,0,0,0,2.7696,2.7717,2.7716,2.7819,2.7845,2.7907,2.7978,2.8,2.8034,2.8044,2.8141,2.8158,2.8227,2.8268,2.8281,2.8268,2.8325,2.8373,2.837,2.8368,2.8268,2.8257,2.8248,0,0,0,0,0,2.7688,2.7679,2.7715,2.7733,2.7847,2.7905,2.7921,2.8,2.8032,2.8033,2.8099,2.8155,2.826,2.8271,2.8286,2.8275,2.8374,2.8371,2.8368,2.8273,2.8259,2.8248,0,0,0,0,0,0,2.757,2.7694,2.7736,2.7759,2.7821,2.7926,2.7929,2.7983,2.8036,2.8044,2.8139,2.816,2.8186,2.8234,2.8244,2.8279,2.8325,2.8324,2.8247,2.8235,2.8225,2.8214,2.8329,0,0,0,0,0,2.7547,2.7585,2.7691,2.7701,2.773,2.7824,2.7852,2.7909,2.7976,2.8003,2.8071,2.8134,2.8182,2.8211,2.826,2.8275,2.83,2.8275,2.8265,2.8257,2.8255,2.8271,2.8262,2.8355,2.8355,2.8355,0,0,2.7499,2.7571,2.7589,2.7679,2.7734,2.7772,2.7845,2.7881,2.791,2.8008,2.8047,2.81,2.8176,2.8203,2.8218,2.8243,2.8235,2.8252,2.8245,2.8249,2.8266,2.8258,2.825,2.8353,2.8353,2.8354,0,0,2.7432,2.7489,2.7507,2.7561,2.7643,2.7706,2.771,2.7808,2.7847,2.7888,2.7964,2.7999,2.8078,2.8131,2.8168,2.8124,2.8179,2.8137,2.8085,2.8099,2.8092,2.8086,2.8073,2.8067,2.8135,2.8135,2.8135,0,2.7362,2.7422,2.7508,2.7541,2.758,2.7672,2.7691,2.7738,2.7832,2.7856,2.7884,2.7988,2.8045,2.8087,2.8077,2.8103,2.8112,2.8127,2.8086,2.8081,2.8076,2.8065,2.806,2.813,2.813,2.8131,2.8131,0,2.7334,2.7374,2.7378,2.7469,2.7508,2.7532,2.7623,2.7652,2.7705,2.7766,2.7808,2.7881,2.7948,2.7962,2.8013,2.8012,2.8026,2.8068,2.8116,2.8061,2.8052,2.8048,2.8122,2.8124,2.8126,2.8127,0,0,2.7196,2.7336,2.7336,2.738,2.7479,2.7512,2.7542,2.761,2.7634,2.7696,2.7725,2.7791,2.7832,2.7874,2.7932,2.7944,2.7909,2.7986,2.7989,2.7971,2.7915,2.7884,2.7878,2.7945,2.7945,2.7944,2.791,0,2.7146,2.7207,2.7286,2.732,2.736,2.745,2.7477,2.7541,2.7598,2.7641,2.7704,2.7751,2.78,2.7826,2.7842,2.7909,2.7899,2.7913,2.7974,2.7975,2.7954,2.7873,2.784,2.7804,2.7907,2.7906,2.7906,0,2.7096,2.7156,2.7194,2.7293,2.7313,2.7336,2.7406,2.7445,2.752,2.7561,2.761,2.7673,2.7711,2.7753,2.7808,2.7815,2.7845,2.7882,2.7883,2.7893,2.7938,2.7883,2.7794,2.7789,2.7901,2.7901,2.7901,0,2.6995,2.7085,2.7121,2.7155,2.727,2.7285,2.7333,2.741,2.7447,2.7508,2.7533,2.7596,2.7631,2.7679,2.7759,2.7782,2.7806,2.7854,2.7842,2.784,2.7844,2.7843,2.7761,2.786,2.786,2.786,2.786,0,2.6932,2.6953,2.7077,2.7099,2.7126,2.7217,2.7241,2.7298,2.7366,2.7401,2.7481,2.7513,2.7615,2.7659,2.7721,2.7758,2.7773,2.7808,2.7825,2.7802,2.7798,2.7824,2.783,2.7859,2.7859,2.7859,2.7859,0,2.6824,2.6908,2.6954,2.706,2.7088,2.7103,2.7195,2.722,2.7283,2.7327,2.7342,2.7441,2.7497,2.7581,2.7661,2.7703,2.7731,2.7757,2.7706,2.7717,2.7702,2.7703,2.7635,2.7632,2.7729,2.7728,2.7727,0,2.678,2.6799,2.6908,2.6938,2.6985,2.7032,2.7071,2.7162,2.7199,2.7288,2.7302,2.7365,2.742,2.7505,2.7584,2.7647,2.7676,2.7648,2.7686,2.7664,2.7679,2.7678,2.7681,2.7639,2.7638,2.7636,2.7635,0,2.6693,2.6735,2.6787,2.6856,2.69,2.6958,2.7019,2.7039,2.7144,2.7181,2.7241,2.7283,2.7367,2.7429,2.7503,2.7554,2.7612,2.7623,2.7624,2.7602,2.7573,2.7591,2.7684,2.7624,2.7625,2.7626,2.7627,2.7627,2.6618,2.664,2.6721,2.6779,2.6835,2.6891,2.6922,2.6989,2.7041,2.7117,2.7168,2.7224,2.7302,2.7408,2.7456,2.7502,2.7527,2.7528,2.7528,2.7528,2.7521,2.7564,2.7515,2.7516,2.7516,2.7517,2.7517,0,2.6538,2.6595,2.6647,2.6732,2.6777,2.683,2.6901,2.6936,2.6985,2.7053,2.7106,2.7176,2.7237,2.7321,2.7389,2.741,2.7439,2.7425,2.7425,2.7436,2.7493,2.7487,2.74,2.74,2.74,2.74,2.74,2.74,2.6501,2.6543,2.6594,2.6664,2.6722,2.6779,2.6816,2.6869,2.6924,2.6999,2.705,2.7106,2.7181,2.7255,2.7314,2.7337,2.7359,2.7337,2.7369,2.7421,2.7432,2.7442,2.7436,2.7341,2.7341,2.7309,2.7308,2.7308]}]]